,,,PA_Meas_PMT16A,,PR_Meas_QMR101_102,,RH_Meas_QMH101,,SR_Meas_QMS101,,TA_Meas_QMH101,,GenWind,,GenWind,
date,time,status,PA,status,PR,status,RH,status,SR,status,TA,status,DirAvg,status,SpdAvg,
2010-09-28, 00:00:04,VALID,1001.1,VALID,0,VALID,68.3853,VALID,524.737,VALID,29.9793,VALID,117,VALID,2.05625,
2010-09-28, 00:01:04,VALID,1001.07,VALID,0,VALID,67.1113,VALID,521.017,VALID,30.0573,VALID,91,VALID,2.29688,
2010-09-28, 00:02:04,VALID,1001.12,VALID,0,VALID,67.3401,VALID,517.597,VALID,30.0963,VALID,116,VALID,2.0082,
2010-09-28, 00:03:04,VALID,1001.08,VALID,0,VALID,67.1265,VALID,514.782,VALID,29.9426,VALID,126,VALID,2.8957,
2010-09-28, 00:04:04,VALID,1001.09,VALID,0,VALID,66.8595,VALID,512.067,VALID,29.8233,VALID,110,VALID,2.47148,
2010-09-28, 00:05:04,VALID,1001.11,VALID,0,VALID,67.7216,VALID,505.228,VALID,29.8233,VALID,108,VALID,2.11406,
2010-09-28, 00:06:04,VALID,1001.05,VALID,0,VALID,67.7521,VALID,499.697,VALID,29.7258,VALID,101,VALID,3.84531,
2010-09-28, 00:07:04,VALID,1001.1,VALID,0,VALID,67.8284,VALID,495.876,VALID,29.6673,VALID,118,VALID,3.13828,
2010-09-28, 00:08:04,VALID,1001.05,VALID,0,VALID,67.8741,VALID,490.848,VALID,29.6088,VALID,124,VALID,3.50234,
2010-09-28, 00:09:04,VALID,1001.03,VALID,0,VALID,69.9416,VALID,488.635,VALID,29.5698,VALID,128,VALID,1.41953,
2010-09-28, 00:10:04,VALID,1001.01,VALID,0,VALID,69.3313,VALID,484.915,VALID,29.7258,VALID,109,VALID,2.68477,
2010-09-28, 00:11:04,VALID,1001.04,VALID,0,VALID,67.2715,VALID,481.797,VALID,29.6478,VALID,116,VALID,4.22891,
2010-09-28, 00:12:04,VALID,1001.03,VALID,0,VALID,68.7896,VALID,477.875,VALID,29.5113,VALID,110,VALID,3.1125,
2010-09-28, 00:13:04,VALID,1001.01,VALID,0,VALID,68.637,VALID,473.048,VALID,29.4745,VALID,105,VALID,2.30781,
2010-09-28, 00:14:04,VALID,1000.98,VALID,0,VALID,69.9721,VALID,468.724,VALID,29.4918,VALID,117,VALID,1.79609,
2010-09-28, 00:15:04,VALID,1000.95,VALID,0,VALID,70.3612,VALID,465.506,VALID,29.4528,VALID,123,VALID,2.8793,
2010-09-28, 00:16:04,VALID,1000.95,VALID,0,VALID,70.8952,VALID,459.372,VALID,29.4115,VALID,94,VALID,2.68125,
2010-09-28, 00:17:04,VALID,1000.96,VALID,0,VALID,71.0935,VALID,454.142,VALID,29.5113,VALID,142,VALID,3.27539,
2010-09-28, 00:18:04,VALID,1000.97,VALID,0,VALID,71.0325,VALID,449.919,VALID,29.5285,VALID,95,VALID,3.15469,
2010-09-28, 00:19:04,VALID,1000.92,VALID,0,VALID,70.8189,VALID,446.198,VALID,29.5675,VALID,120,VALID,2.88203,
2010-09-28, 00:20:04,VALID,1000.94,VALID,0,VALID,70.3993,VALID,444.689,VALID,29.5285,VALID,110,VALID,2.8293,
2010-09-28, 00:21:04,VALID,1000.93,VALID,0,VALID,71.7572,VALID,443.684,VALID,29.4895,VALID,129,VALID,1.90625,
2010-09-28, 00:22:04,VALID,1000.9,VALID,0,VALID,70.3383,VALID,444.79,VALID,29.4528,VALID,126,VALID,4.02695,
2010-09-28, 00:23:04,VALID,1000.97,VALID,0,VALID,71.4521,VALID,448.913,VALID,29.431,VALID,115,VALID,2.87305,
2010-09-28, 00:24:04,VALID,1000.91,VALID,0,VALID,72.2684,VALID,447.405,VALID,29.3943,VALID,100,VALID,1.95469,
2010-09-28, 00:25:04,VALID,1000.89,VALID,0,VALID,71.7344,VALID,445.695,VALID,29.3725,VALID,108,VALID,2.69336,
2010-09-28, 00:26:04,VALID,1000.93,VALID,0,VALID,71.4979,VALID,441.773,VALID,29.4723,VALID,124,VALID,3.74492,
2010-09-28, 00:27:04,VALID,1000.86,VALID,0,VALID,72.4286,VALID,443.08,VALID,29.4115,VALID,109,VALID,2.40547,
2010-09-28, 00:28:04,VALID,1000.86,VALID,0,VALID,71.4902,VALID,440.265,VALID,29.4918,VALID,103,VALID,1.85508,
2010-09-28, 00:29:04,VALID,1000.89,VALID,0,VALID,70.9486,VALID,188.556,VALID,29.5675,VALID,120,VALID,2.80703,
2010-09-28, 00:30:04,VALID,1000.96,VALID,0,VALID,69.6669,VALID,417.537,VALID,29.5698,VALID,98,VALID,2.54219,
2010-09-28, 00:31:04,VALID,1000.97,VALID,0,VALID,69.7051,VALID,410.599,VALID,29.4895,VALID,67,VALID,2.91406,
2010-09-28, 00:32:04,VALID,1000.95,VALID,0,VALID,70.262,VALID,405.269,VALID,29.4505,VALID,99,VALID,2.20703,
2010-09-28, 00:33:04,VALID,1000.96,VALID,0,VALID,71.2766,VALID,398.229,VALID,29.47,VALID,129,VALID,1.48086,
2010-09-28, 00:34:04,VALID,1000.92,VALID,0,VALID,70.8723,VALID,394.006,VALID,29.5675,VALID,122,VALID,2.37539,
2010-09-28, 00:35:04,VALID,1000.97,VALID,0,VALID,70.7579,VALID,394.106,VALID,29.6673,VALID,103,VALID,1.90742,
2010-09-28, 00:36:04,VALID,1000.98,VALID,0,VALID,71.2309,VALID,394.911,VALID,29.704,VALID,75,VALID,1.31055,
2010-09-28, 00:37:04,VALID,1000.98,VALID,0,VALID,68.4311,VALID,387.57,VALID,29.782,VALID,94,VALID,1.56836,
2010-09-28, 00:38:04,VALID,1000.98,VALID,0,VALID,68.4311,VALID,378.117,VALID,29.8233,VALID,29,VALID,1.59375,
2010-09-28, 00:39:04,VALID,1000.98,VALID,0,VALID,68.6523,VALID,369.368,VALID,29.7843,VALID,86,VALID,2.20117,
2010-09-28, 00:40:04,VALID,1001,VALID,0,VALID,69.7356,VALID,362.529,VALID,29.8038,VALID,85,VALID,1.25273,
2010-09-28, 00:41:04,VALID,1000.99,VALID,0,VALID,69.8729,VALID,360.116,VALID,29.8428,VALID,103,VALID,1.87773,
2010-09-28, 00:42:04,VALID,1000.98,VALID,0,VALID,69.6898,VALID,361.825,VALID,29.8233,VALID,107,VALID,1.11836,
2010-09-28, 00:43:04,VALID,1001.01,VALID,0,VALID,70.1399,VALID,364.842,VALID,29.9208,VALID,119,VALID,1.4293,
2010-09-28, 00:44:04,VALID,1001,VALID,0,VALID,68.4768,VALID,365.345,VALID,29.8818,VALID,104,VALID,2.4043,
2010-09-28, 00:45:04,VALID,1000.99,VALID,0,VALID,68.4005,VALID,360.82,VALID,29.7258,VALID,108,VALID,1.81484,
2010-09-28, 00:46:04,VALID,1001.09,VALID,0,VALID,68.9498,VALID,349.959,VALID,29.7453,VALID,87,VALID,1.69609,
2010-09-28, 00:47:04,VALID,1001,VALID,0,VALID,68.782,VALID,340.908,VALID,29.5308,VALID,84,VALID,2.44141,
2010-09-28, 00:48:04,VALID,1000.98,VALID,0,VALID,68.1335,VALID,249.597,VALID,29.4918,VALID,95,VALID,2.47773,
2010-09-28, 00:49:04,VALID,1001.01,VALID,0,VALID,69.0261,VALID,252.413,VALID,29.5308,VALID,48,VALID,1.50781,
2010-09-28, 00:50:04,VALID,1001.02,VALID,0,VALID,68.2556,VALID,99.9596,VALID,29.4333,VALID,84,VALID,1.9332,
2010-09-28, 00:51:04,VALID,1001,VALID,0,VALID,65.5702,VALID,87.892,VALID,29.4745,VALID,98,VALID,3.04453,
2010-09-28, 00:52:04,VALID,1001.02,VALID,0,VALID,66.3636,VALID,175.281,VALID,29.4333,VALID,73,VALID,1.20156,
2010-09-28, 00:53:04,VALID,1000.96,VALID,0,VALID,65.3261,VALID,207.964,VALID,29.4528,VALID,73,VALID,2.3375,
2010-09-28, 00:54:04,VALID,1001,VALID,0,VALID,65.4176,VALID,188.455,VALID,29.4528,VALID,112,VALID,1.85117,
2010-09-28, 00:55:04,VALID,1000.98,VALID,0,VALID,64.7539,VALID,171.359,VALID,29.3943,VALID,102,VALID,2.73477,
2010-09-28, 00:56:04,VALID,1001.02,VALID,0,VALID,64.6166,VALID,140.788,VALID,29.3163,VALID,112,VALID,2.88086,
2010-09-28, 00:57:04,VALID,1001.07,VALID,0,VALID,66.1119,VALID,151.649,VALID,29.2578,VALID,82,VALID,1.83359,
2010-09-28, 00:58:04,VALID,1001.11,VALID,0,VALID,66.356,VALID,174.477,VALID,29.2773,VALID,40,VALID,2.16094,
2010-09-28, 00:59:04,VALID,1001.11,VALID,0,VALID,66.89,VALID,169.951,VALID,29.2578,VALID,66,VALID,0.970703,
2010-09-28, 01:00:04,VALID,1001.14,VALID,0,VALID,67.5003,VALID,165.225,VALID,29.2773,VALID,43,VALID,1.42266,
2010-09-28, 01:01:04,VALID,1001.11,VALID,0,VALID,67.5537,VALID,160.8,VALID,29.2773,VALID,35,VALID,1.58047,
2010-09-28, 01:02:04,VALID,1001.11,VALID,0,VALID,66.89,VALID,132.643,VALID,29.2578,VALID,60,VALID,1.91445,
2010-09-28, 01:03:04,VALID,1001.14,VALID,0,VALID,67.1952,VALID,128.922,VALID,29.2578,VALID,53,VALID,1.89609,
2010-09-28, 01:04:04,VALID,1001.14,VALID,0,VALID,67.5461,VALID,155.269,VALID,29.1971,VALID,74,VALID,0.674609,
2010-09-28, 01:05:04,VALID,1001.15,VALID,0,VALID,67.8818,VALID,151.247,VALID,29.2383,VALID,98,VALID,0.776953,
2010-09-28, 01:06:04,VALID,1001.18,VALID,0,VALID,67.8665,VALID,148.531,VALID,29.2188,VALID,83,VALID,1.95352,
2010-09-28, 01:07:04,VALID,1001.15,VALID,0,VALID,67.2104,VALID,145.112,VALID,29.2166,VALID,22,VALID,1.05586,
2010-09-28, 01:08:04,VALID,1001.19,VALID,0,VALID,67.7979,VALID,133.95,VALID,29.2361,VALID,115,VALID,1.8668,
2010-09-28, 01:09:04,VALID,1001.2,VALID,0,VALID,66.6993,VALID,109.412,VALID,29.2188,VALID,97,VALID,2.16758,
2010-09-28, 01:10:04,VALID,1001.2,VALID,0,VALID,67.8284,VALID,124.095,VALID,29.1993,VALID,103,VALID,2.22852,
2010-09-28, 01:11:04,VALID,1001.21,VALID,0,VALID,67.8589,VALID,132.542,VALID,29.1993,VALID,104,VALID,1.56953,
2010-09-28, 01:12:04,VALID,1001.27,VALID,0,VALID,68.7667,VALID,129.123,VALID,29.1581,VALID,92,VALID,1.49102,
2010-09-28, 01:13:04,VALID,1001.26,VALID,0,VALID,68.6294,VALID,126.106,VALID,29.1408,VALID,94,VALID,1.43555,
2010-09-28, 01:14:04,VALID,1001.23,VALID,0,VALID,68.7438,VALID,122.385,VALID,29.0996,VALID,111,VALID,1.88594,
2010-09-28, 01:15:04,VALID,1001.24,VALID,0,VALID,69.0566,VALID,103.58,VALID,29.0823,VALID,44,VALID,1.40039,
2010-09-28, 01:16:04,VALID,1001.24,VALID,0,VALID,69.0566,VALID,95.4342,VALID,29.0628,VALID,69,VALID,1.12422,
2010-09-28, 01:17:04,VALID,1001.25,VALID,0,VALID,69.6822,VALID,116.351,VALID,29.0411,VALID,112,VALID,1.04805,
2010-09-28, 01:18:04,VALID,1001.25,VALID,0,VALID,70.529,VALID,113.133,VALID,29.0823,VALID,103,VALID,0.805078,
2010-09-28, 01:19:04,VALID,1001.27,VALID,0,VALID,68.8812,VALID,109.614,VALID,29.0433,VALID,107,VALID,2.53672,
2010-09-28, 01:20:04,VALID,1001.26,VALID,0,VALID,69.7356,VALID,108.206,VALID,28.9653,VALID,85,VALID,2.11758,
2010-09-28, 01:21:04,VALID,1001.25,VALID,0,VALID,70.323,VALID,102.876,VALID,28.8851,VALID,109,VALID,1.41562,
2010-09-28, 01:22:04,VALID,1001.3,VALID,0,VALID,69.8577,VALID,83.7689,VALID,28.9263,VALID,87,VALID,1.65898,
2010-09-28, 01:23:04,VALID,1001.28,VALID,0,VALID,70.1552,VALID,94.1269,VALID,28.8678,VALID,77,VALID,1.55508,
2010-09-28, 01:24:04,VALID,1001.29,VALID,0,VALID,69.9339,VALID,100.161,VALID,28.8461,VALID,114,VALID,2.95039,
2010-09-28, 01:25:04,VALID,1001.3,VALID,0,VALID,70.1094,VALID,97.3449,VALID,28.8267,VALID,133,VALID,2.02891,
2010-09-28, 01:26:04,VALID,1001.36,VALID,0,VALID,70.8494,VALID,94.8309,VALID,28.8267,VALID,77,VALID,0.30625,
2010-09-28, 01:27:04,VALID,1001.37,VALID,0,VALID,71.3911,VALID,93.5235,VALID,28.8245,VALID,34,VALID,1.67461,
2010-09-28, 01:28:04,VALID,1001.35,VALID,0,VALID,71.7572,VALID,91.7134,VALID,28.7877,VALID,129,VALID,0.880859,
2010-09-28, 01:29:04,VALID,1001.38,VALID,0,VALID,71.6276,VALID,77.3329,VALID,28.8288,VALID,93,VALID,1.18047,
2010-09-28, 01:30:04,VALID,1001.39,VALID,0,VALID,70.857,VALID,87.3892,VALID,28.7682,VALID,70,VALID,1.50391,
2010-09-28, 01:31:04,VALID,1001.39,VALID,0,VALID,71.6276,VALID,97.3449,VALID,28.7682,VALID,127,VALID,1.77305,
2010-09-28, 01:32:04,VALID,1001.43,VALID,0,VALID,72.1005,VALID,101.066,VALID,28.7682,VALID,86,VALID,1.11875,
2010-09-28, 01:33:04,VALID,1001.4,VALID,0,VALID,71.8183,VALID,106.396,VALID,28.7487,VALID,39,VALID,0.379687,
2010-09-28, 01:34:04,VALID,1001.41,VALID,0,VALID,71.6581,VALID,99.7584,VALID,28.7877,VALID,111,VALID,0.999219,
2010-09-28, 01:35:04,VALID,1001.44,VALID,0,VALID,72.3523,VALID,81.2549,VALID,28.7877,VALID,105,VALID,0.791797,
2010-09-28, 01:36:04,VALID,1001.48,VALID,0,VALID,72.3447,VALID,68.6845,VALID,28.7487,VALID,52,VALID,1.18008,
2010-09-28, 01:37:04,VALID,1001.46,VALID,0,VALID,72.2226,VALID,74.7183,VALID,28.7097,VALID,75,VALID,1.61172,
2010-09-28, 01:38:04,VALID,1001.52,VALID,0,VALID,72.8787,VALID,81.9588,VALID,28.7097,VALID,103,VALID,1.17695,
2010-09-28, 01:39:04,VALID,1001.51,VALID,0,VALID,73.5195,VALID,84.8751,VALID,28.6729,VALID,8,VALID,0.998828,
2010-09-28, 01:40:04,VALID,1001.52,VALID,0,VALID,73.3669,VALID,82.8639,VALID,28.6729,VALID,10,VALID,1.13008,
2010-09-28, 01:41:04,VALID,1001.55,VALID,0,VALID,73.8857,VALID,58.9299,VALID,28.6339,VALID,104,VALID,0.926172,
2010-09-28, 01:42:04,VALID,1001.56,VALID,0,VALID,74.7249,VALID,41.8342,VALID,28.6339,VALID,18,VALID,0.751953,
2010-09-28, 01:43:04,VALID,1001.6,VALID,0,VALID,73.6874,VALID,35.4987,VALID,28.5732,VALID,34,VALID,1.1668,
2010-09-28, 01:44:04,VALID,1001.64,VALID,0,VALID,74.023,VALID,31.3756,VALID,28.4953,VALID,92,VALID,1.20742,
2010-09-28, 01:45:04,VALID,1001.63,VALID,0,VALID,72.4286,VALID,28.6604,VALID,28.3978,VALID,72,VALID,1.1293,
2010-09-28, 01:46:04,VALID,1001.67,VALID,0,VALID,72.5812,VALID,26.4481,VALID,28.3198,VALID,113,VALID,2.00859,
2010-09-28, 01:47:04,VALID,1001.7,VALID,0,VALID,72.543,VALID,24.839,VALID,28.2809,VALID,112,VALID,4.16563,
2010-09-28, 01:48:04,VALID,1001.74,VALID,0,VALID,73.4585,VALID,23.8334,VALID,28.2224,VALID,102,VALID,1.94609,
2010-09-28, 01:49:04,VALID,1001.75,VALID,0,VALID,73.3441,VALID,23.1295,VALID,28.1444,VALID,104,VALID,1.97461,
2010-09-28, 01:50:04,VALID,1001.78,VALID,0,VALID,74.0612,VALID,22.5261,VALID,28.1076,VALID,66,VALID,1.72344,
2010-09-28, 01:51:04,VALID,1001.82,VALID,0,VALID,74.7554,VALID,22.0233,VALID,28.0275,VALID,83,VALID,1.13828,
2010-09-28, 01:52:04,VALID,1001.86,VALID,0,VALID,74.5876,VALID,21.5205,VALID,27.969,VALID,133,VALID,1.69492,
2010-09-28, 01:53:04,VALID,1001.87,VALID,0,VALID,74.7783,VALID,21.1182,VALID,27.9711,VALID,138,VALID,1.46406,
2010-09-28, 01:54:04,VALID,1001.92,VALID,0,VALID,74.5952,VALID,20.6154,VALID,27.9105,VALID,70,VALID,1.73906,
2010-09-28, 01:55:04,VALID,1001.94,VALID,0,VALID,74.908,VALID,20.3137,VALID,27.8521,VALID,99,VALID,2.18906,
2010-09-28, 01:56:04,VALID,1001.97,VALID,0,VALID,75.5412,VALID,19.8109,VALID,27.8326,VALID,101,VALID,1.24453,
2010-09-28, 01:57:04,VALID,1001.98,VALID,0,VALID,75.5641,VALID,19.4086,VALID,27.8326,VALID,87,VALID,0.917969,
2010-09-28, 01:58:04,VALID,1002.02,VALID,0,VALID,75.6709,VALID,19.0064,VALID,27.7936,VALID,66,VALID,0.536328,
2010-09-28, 01:59:04,VALID,1002.02,VALID,0,VALID,76.2964,VALID,18.5036,VALID,27.7741,VALID,119,VALID,0.667188,
2010-09-28, 02:00:04,VALID,1002.05,VALID,0,VALID,75.8311,VALID,18.1013,VALID,27.7136,VALID,94,VALID,1.96758,
2010-09-28, 02:01:04,VALID,1002.04,VALID,0,VALID,76.2049,VALID,17.498,VALID,27.6746,VALID,91,VALID,0.980859,
2010-09-28, 02:02:04,VALID,1002.04,VALID,0,VALID,76.7618,VALID,16.794,VALID,27.6572,VALID,93,VALID,1.11992,
2010-09-28, 02:03:04,VALID,1002.06,VALID,0,VALID,76.8991,VALID,16.0901,VALID,27.6182,VALID,100,VALID,0.673437,
2010-09-28, 02:04:04,VALID,1002.07,VALID,0,VALID,76.3422,VALID,15.3861,VALID,27.5577,VALID,19,VALID,1.36016,
2010-09-28, 02:05:04,VALID,1002.06,VALID,0,VALID,76.9449,VALID,14.4811,VALID,27.5792,VALID,76,VALID,0.732031,
2010-09-28, 02:06:04,VALID,1002.07,VALID,0,VALID,77.1127,VALID,13.4754,VALID,27.5598,VALID,61,VALID,1.01172,
2010-09-28, 02:07:04,VALID,1002.06,VALID,0,VALID,76.7313,VALID,12.4698,VALID,27.5403,VALID,62,VALID,1.35,
2010-09-28, 02:08:04,VALID,1002.06,VALID,0,VALID,76.4872,VALID,11.5647,VALID,27.5208,VALID,34,VALID,1.34922,
2010-09-28, 02:09:04,VALID,1002.06,VALID,0,VALID,77.0364,VALID,10.7602,VALID,27.4992,VALID,67,VALID,1.06367,
2010-09-28, 02:10:04,VALID,1002.06,VALID,0,VALID,77.0288,VALID,9.95573,VALID,27.4818,VALID,82,VALID,0.894922,
2010-09-28, 02:11:04,VALID,1002.06,VALID,0,VALID,77.456,VALID,9.25179,VALID,27.4623,VALID,117,VALID,0.646875,
2010-09-28, 02:12:04,VALID,1002.07,VALID,0,VALID,77.9366,VALID,8.44729,VALID,27.4213,VALID,37,VALID,0.478906,
2010-09-28, 02:13:04,VALID,1002.07,VALID,0,VALID,77.7383,VALID,7.64278,VALID,27.3823,VALID,38,VALID,0.696094,
2010-09-28, 02:14:04,VALID,1002.05,VALID,0,VALID,77.6849,VALID,6.63715,VALID,27.3628,VALID,32,VALID,1.08477,
2010-09-28, 02:15:04,VALID,1002.06,VALID,0,VALID,78.2265,VALID,5.83265,VALID,27.3454,VALID,40,VALID,0.407813,
2010-09-28, 02:16:04,VALID,1002.07,VALID,0,VALID,78.4249,VALID,5.02815,VALID,27.3259,VALID,98,VALID,0.378125,
2010-09-28, 02:17:04,VALID,1002.08,VALID,0,VALID,78.6614,VALID,4.22364,VALID,27.2654,VALID,49,VALID,0.701172,
2010-09-28, 02:18:04,VALID,1002.1,VALID,0,VALID,79.1573,VALID,3.5197,VALID,27.2459,VALID,37,VALID,0.509766,
2010-09-28, 02:19:04,VALID,1002.11,VALID,0,VALID,78.9208,VALID,2.91633,VALID,27.1875,VALID,39,VALID,0.772656,
2010-09-28, 02:20:04,VALID,1002.11,VALID,0,VALID,79.0047,VALID,2.41351,VALID,27.1485,VALID,61,VALID,0.440234,
2010-09-28, 02:21:04,VALID,1002.1,VALID,0,VALID,79.4548,VALID,2.11182,VALID,27.1485,VALID,7,VALID,0.388281,
2010-09-28, 02:22:04,VALID,1002.15,VALID,0,VALID,79.8057,VALID,1.9107,VALID,27.1095,VALID,36,VALID,0.433984,
2010-09-28, 02:23:04,VALID,1002.13,VALID,0,VALID,79.6455,VALID,1.50844,VALID,27.09,VALID,57,VALID,0.338672,
2010-09-28, 02:24:04,VALID,1002.14,VALID,0,VALID,79.9125,VALID,1.00563,VALID,27.0706,VALID,52,VALID,0.242578,
2010-09-28, 02:25:04,VALID,1002.18,VALID,0,VALID,80.0804,VALID,0.703941,VALID,27.0336,VALID,38,VALID,0.695703,
2010-09-28, 02:26:04,VALID,1002.17,VALID,0,VALID,80.4084,VALID,0.603378,VALID,26.9947,VALID,37,VALID,0.35625,
2010-09-28, 02:27:04,VALID,1002.19,VALID,0,VALID,80.4084,VALID,0.402252,VALID,26.9557,VALID,85,VALID,0.683984,
2010-09-28, 02:28:04,VALID,1002.21,VALID,0,VALID,80.8509,VALID,0.301689,VALID,26.9342,VALID,86,VALID,0.264844,
2010-09-28, 02:29:04,VALID,1002.18,VALID,0,VALID,80.8432,VALID,0.301689,VALID,26.9167,VALID,80,VALID,0.271875,
2010-09-28, 02:30:04,VALID,1002.23,VALID,0,VALID,80.6983,VALID,0.201126,VALID,26.9167,VALID,351,VALID,0.419141,
2010-09-28, 02:31:04,VALID,1002.22,VALID,0,VALID,81.1331,VALID,0.100563,VALID,26.8973,VALID,351,VALID,0.494922,
2010-09-28, 02:32:04,VALID,1002.25,VALID,0,VALID,81.1713,VALID,0.100563,VALID,26.8973,VALID,353,VALID,0.381641,
2010-09-28, 02:33:04,VALID,1002.26,VALID,0,VALID,81.2781,VALID,0,VALID,26.9188,VALID,353,VALID,0.341016,
2010-09-28, 02:34:04,VALID,1002.26,VALID,0,VALID,81.5375,VALID,0.100563,VALID,26.8563,VALID,26,VALID,0.203516,
2010-09-28, 02:35:04,VALID,1002.28,VALID,0,VALID,81.3315,VALID,0.100563,VALID,26.8388,VALID,26,VALID,0.281641,
2010-09-28, 02:36:04,VALID,1002.32,VALID,0,VALID,81.8503,VALID,0,VALID,26.8193,VALID,38,VALID,0.350781,
2010-09-28, 02:37:04,VALID,1002.28,VALID,0,VALID,81.8808,VALID,0,VALID,26.7609,VALID,48,VALID,0.522656,
2010-09-28, 02:38:04,VALID,1002.32,VALID,0,VALID,82.4835,VALID,0,VALID,26.7609,VALID,81,VALID,0.476563,
2010-09-28, 02:39:04,VALID,1002.32,VALID,0,VALID,82.7962,VALID,0,VALID,26.7609,VALID,81,VALID,0.38125,
2010-09-28, 02:40:04,VALID,1002.37,VALID,0,VALID,83.2997,VALID,0,VALID,26.7004,VALID,81,VALID,0.258984,
2010-09-28, 02:41:04,VALID,1002.37,VALID,0,VALID,83.4828,VALID,0,VALID,26.6809,VALID,81,VALID,0.168359,
2010-09-28, 02:42:04,VALID,1002.4,VALID,0,VALID,83.788,VALID,0,VALID,26.6635,VALID,81,VALID,0.128125,
2010-09-28, 02:43:04,VALID,1002.42,VALID,0,VALID,83.9482,VALID,0,VALID,26.5835,VALID,81,VALID,0.00273437,
2010-09-28, 02:44:04,VALID,1002.45,VALID,0,VALID,84.3678,VALID,0,VALID,26.5661,VALID,81,VALID,0.282813,
2010-09-28, 02:45:04,VALID,1002.45,VALID,0,VALID,84.9781,VALID,0,VALID,26.5076,VALID,67,VALID,0.568359,
2010-09-28, 02:46:04,VALID,1002.48,VALID,0,VALID,85.5732,VALID,0,VALID,26.4297,VALID,62,VALID,0.24375,
2010-09-28, 02:47:04,VALID,1002.49,VALID,0,VALID,85.7791,VALID,0,VALID,26.3713,VALID,62,VALID,0.00585938,
2010-09-28, 02:48:04,VALID,1002.5,VALID,0,VALID,86.1148,VALID,0.100563,VALID,26.2719,VALID,62,VALID,0.513281,
2010-09-28, 02:49:04,VALID,1002.49,VALID,0,VALID,86.0767,VALID,0,VALID,26.2154,VALID,62,VALID,0.465625,
2010-09-28, 02:50:04,VALID,1002.47,VALID,0,VALID,86.7556,VALID,0,VALID,26.1745,VALID,62,VALID,0.386328,
2010-09-28, 02:51:04,VALID,1002.51,VALID,0,VALID,87.0303,VALID,0,VALID,26.1355,VALID,56,VALID,0.519531,
2010-09-28, 02:52:04,VALID,1002.53,VALID,0,VALID,87.6406,VALID,0,VALID,26.0771,VALID,51,VALID,0.210938,
2010-09-28, 02:53:04,VALID,1002.58,VALID,0,VALID,87.6101,VALID,0,VALID,26.0362,VALID,51,VALID,0.294922,
2010-09-28, 02:54:04,VALID,1002.61,VALID,0,VALID,87.7703,VALID,0.100563,VALID,25.9797,VALID,51,VALID,0.162109,
2010-09-28, 02:55:04,VALID,1002.64,VALID,0,VALID,88.3119,VALID,0,VALID,25.9583,VALID,51,VALID,0.405078,
2010-09-28, 02:56:04,VALID,1002.64,VALID,0,VALID,88.8383,VALID,0.100563,VALID,25.9408,VALID,51,VALID,0.458203,
2010-09-28, 02:57:04,VALID,1002.67,VALID,0,VALID,89.0595,VALID,0.100563,VALID,25.8823,VALID,51,VALID,0.235938,
2010-09-28, 02:58:04,VALID,1002.7,VALID,0,VALID,89.1053,VALID,0,VALID,25.8629,VALID,33,VALID,0.596875,
2010-09-28, 02:59:04,VALID,1002.73,VALID,0,VALID,89.7004,VALID,0.100563,VALID,25.8648,VALID,24,VALID,0.391016,
2010-09-28, 03:00:04,VALID,1002.73,VALID,0,VALID,90.1963,VALID,0.100563,VALID,25.8044,VALID,24,VALID,0.197266,
2010-09-28, 03:01:04,VALID,1002.76,VALID,0,VALID,90.2802,VALID,0,VALID,25.8259,VALID,24,VALID,0.247656,
2010-09-28, 03:02:04,VALID,1002.78,VALID,0,VALID,91.0659,VALID,0.100563,VALID,25.7655,VALID,24,VALID,0,
2010-09-28, 03:03:04,VALID,1002.77,VALID,0,VALID,92.2027,VALID,0.100563,VALID,25.744,VALID,24,VALID,0,
2010-09-28, 03:04:04,VALID,1002.83,VALID,0,VALID,93.08,VALID,0.100563,VALID,25.746,VALID,24,VALID,0,
2010-09-28, 03:05:04,VALID,1002.86,VALID,0,VALID,93.469,VALID,0.100563,VALID,25.7265,VALID,24,VALID,0.288281,
2010-09-28, 03:06:04,VALID,1002.91,VALID,0,VALID,93.2478,VALID,0.100563,VALID,25.7071,VALID,24,VALID,0.222656,
2010-09-28, 03:07:04,VALID,1002.95,VALID,0,VALID,93.2097,VALID,0.100563,VALID,25.6681,VALID,24,VALID,0.394531,
2010-09-28, 03:08:04,VALID,1002.98,VALID,0,VALID,93.7055,VALID,0.100563,VALID,25.6486,VALID,24,VALID,0.223438,
2010-09-28, 03:09:04,VALID,1003.05,VALID,0,VALID,93.8429,VALID,0.100563,VALID,25.6292,VALID,24,VALID,0.196094,
2010-09-28, 03:10:04,VALID,1003.05,VALID,0,VALID,94.0107,VALID,0.100563,VALID,25.6097,VALID,24,VALID,0.260938,
2010-09-28, 03:11:04,VALID,1003.08,VALID,0,VALID,94.5371,VALID,0,VALID,25.5902,VALID,24,VALID,0.458203,
2010-09-28, 03:12:04,VALID,1003.09,VALID,0,VALID,94.6668,VALID,0,VALID,25.5707,VALID,24,VALID,0.476563,
2010-09-28, 03:13:04,VALID,1003.08,VALID,0,VALID,93.8429,VALID,0,VALID,25.5707,VALID,24,VALID,0.221875,
2010-09-28, 03:14:04,VALID,1003.1,VALID,0,VALID,94.4913,VALID,0.100563,VALID,25.5688,VALID,24,VALID,0.322266,
2010-09-28, 03:15:04,VALID,1003.11,VALID,0,VALID,95.0101,VALID,0,VALID,25.6097,VALID,24,VALID,0.421484,
2010-09-28, 03:16:04,VALID,1003.1,VALID,0,VALID,97.4971,VALID,0,VALID,25.6292,VALID,23,VALID,0.575391,
2010-09-28, 03:17:04,VALID,1003.1,VALID,0,VALID,94.2472,VALID,0,VALID,25.6097,VALID,19,VALID,0.796094,
2010-09-28, 03:18:04,VALID,1003.06,VALID,0,VALID,94.6515,VALID,0.100563,VALID,25.5902,VALID,16,VALID,0.624609,
2010-09-28, 03:19:04,VALID,1003.07,VALID,0,VALID,95.9637,VALID,0.100563,VALID,25.5707,VALID,358,VALID,0.844922,
2010-09-28, 03:20:04,VALID,1003.05,VALID,0,VALID,99.8239,VALID,0,VALID,25.5318,VALID,358,VALID,0.688672,
2010-09-28, 03:21:04,VALID,1003.01,VALID,0,VALID,100.35,VALID,0.100563,VALID,25.4928,VALID,360,VALID,0.707812,
2010-09-28, 03:22:04,VALID,1002.99,VALID,0,VALID,101.579,VALID,0.100563,VALID,25.452,VALID,12,VALID,0.86875,
2010-09-28, 03:23:04,VALID,1003,VALID,0,VALID,100.022,VALID,0.100563,VALID,25.4539,VALID,358,VALID,0.859375,
2010-09-28, 03:24:04,VALID,1002.98,VALID,0,VALID,97.4055,VALID,0.100563,VALID,25.4734,VALID,16,VALID,0.567969,
2010-09-28, 03:25:04,VALID,1002.96,VALID,0,VALID,93.9573,VALID,0.100563,VALID,25.5318,VALID,16,VALID,0.735547,
2010-09-28, 03:26:04,VALID,1002.97,VALID,0,VALID,90.593,VALID,0,VALID,25.6116,VALID,14,VALID,1.07187,
2010-09-28, 03:27:04,VALID,1003,VALID,0,VALID,89.4715,VALID,0,VALID,25.7071,VALID,13,VALID,0.799609,
2010-09-28, 03:28:04,VALID,1002.98,VALID,0,VALID,88.2738,VALID,0,VALID,25.8259,VALID,31,VALID,1.04297,
2010-09-28, 03:29:04,VALID,1002.98,VALID,0,VALID,88.022,VALID,0,VALID,25.8823,VALID,18,VALID,0.718359,
2010-09-28, 03:30:04,VALID,1003,VALID,0,VALID,87.7321,VALID,0,VALID,25.9232,VALID,11,VALID,0.9625,
2010-09-28, 03:31:04,VALID,1003.02,VALID,0,VALID,87.5414,VALID,0,VALID,25.8823,VALID,2,VALID,0.844531,
2010-09-28, 03:32:04,VALID,1002.96,VALID,0,VALID,87.7245,VALID,0,VALID,25.8629,VALID,357,VALID,0.626172,
2010-09-28, 03:33:04,VALID,1002.99,VALID,0,VALID,86.9692,VALID,0,VALID,25.8823,VALID,5,VALID,0.803906,
2010-09-28, 03:34:04,VALID,1002.97,VALID,0,VALID,87.3278,VALID,0,VALID,25.9213,VALID,5,VALID,0.261328,
2010-09-28, 03:35:04,VALID,1002.95,VALID,0,VALID,87.6101,VALID,0,VALID,25.9213,VALID,4,VALID,0.534766,
2010-09-28, 03:36:04,VALID,1003.01,VALID,0,VALID,87.6711,VALID,0,VALID,25.9018,VALID,4,VALID,0.358984,